English version Home page |
Updated on March 27, 2010 |
|
軌道要素Epoch 2010 Jan. 4.0 TT = JDT 2455200.5 T 2010 Jan. 1.28166 TT MPC q 2.5637911 (2000.0) P Q z -0.0003520 Peri. 223.73206 +0.70846932 -0.69506521 +/-0.0000296 Node 172.93885 +0.12813281 +0.29708523 e 1.0009025 Incl. 95.82920 -0.69401239 -0.65469437
|
星図
|
光度変化m1 = 9.5 + 5 logΔ + 10.0 log r
|
軌道要素はM.P.E.C. 2009-S146に掲載されたものです。
|